Location: Brienzwiler
(46.7508°N, 8.1014°E)
Time: 07:54:22
(UTC+00:00)

Cosmos 2327 Rocket - Pass Details

Date: 05 July 2020
Orbit: 943 x 1009 km, 83.0° (Epoch: 06 August)

Event Time Altitude Azimuth Distance (km) Brightness Sun altitude
Exits shadow 21:52:14 25° 173° (S) 1,853 5.4 -17.0°
Maximum altitude 21:56:01 71° 95° (E) 1,015 4.5 -17.2°
Drops below altitude 10° 22:02:08 10° 13° (NNE) 2,690 7.6 -17.6°
Sets 22:04:37 0° 11° (N) 3,633 8.5 -17.8°
